Location: ????????
(54.6123°N, 39.2099°E)
Time: 02:54:05
(UTC+00:00)

Cosmos 2322 Rocket - Pass Details

Date: 19 May 2025
Orbit: 832 x 850 km, 71.0° (Epoch: 15 June)

Event Time Altitude Azimuth Distance (km) Brightness Sun altitude
Rises 22:51:47 0° 316° (NW) 3,415 5.7 -12.8°
Reaches altitude 10° 22:55:46 10° 289° (WNW) 2,469 4.6 -12.6°
Maximum altitude 22:58:00 12° 265° (W) 2,290 4.2 -12.5°
Drops below altitude 10° 23:00:14 10° 242° (WSW) 2,456 4.1 -12.4°
Enters shadow 23:00:18 10° 241° (WSW) 2,466 4.2 -12.4°
